Soldotna, AK

7:14 AM AKDT on May 28, 2017 (GMT -0800)
Soldotna

Weather History for PASX - December, 2012

Change the Weather History Date:

Wednesday, December 19, 2012

  Actual Average Record
Temperature  
Mean Temperature -6 °F -  
Max Temperature 3 °F 26 °F 42 °F (1985)
Min Temperature -16 °F 12 °F -27 °F (2001)
Degree Days  
Heating Degree Days 72    
Moisture  
Dew Point -9 °F    
Average Humidity 85    
Maximum Humidity 100    
Minimum Humidity 54    
Precipitation  
Precipitation 0.00 in - - ()
Sea Level Pressure  
Sea Level Pressure 29.74 in    
Wind  
Wind Speed 1 mph (ENE)    
Max Wind Speed 5 mph    
Max Gust Speed -    
Visibility 10 miles    
Events      
Averages and records for this station are not official NWS values.
T = Trace of Precipitation, MM = Missing Value Source: NWS Daily Summary

Daily Weather History Graph

Daily Weather History Graph

Search for Another Location

Airport or City:

Trip Planner

Search our weather history database for the weather conditions in past years. The results will help you decide how hot, cold, wet, or windy it might be!

Date:

Astronomy

Dec. 19, 2012 Rise Set
Actual Time 10:10 AM AKST 3:53 PM AKST
Civil Twilight 9:10 AM AKST 4:52 PM AKST
Nautical Twilight 8:12 AM AKST 5:50 PM AKST
Astronomical Twilight 7:20 AM AKST 6:42 PM AKST
Moon 12:28 PM AKST (12/19) 12:16 AM AKST (12/19)
Length of Visible Light 7h 41m
Length of Day
5h 42m
Waxing Crescent, 46% of the Moon is Illuminated
Dec 19
Waxing Crescent
Dec 19
First Quarter
Dec 28
Full
Jan 4
Last Quarter
Jan 11
New

Hourly Weather History & Observations

Time (AKST) Temp. Windchill Dew Point Humidity Pressure Visibility Wind Dir Wind Speed Gust Speed Precip Events Conditions
12:16 AM 3.2 °F -4.2 °F -0.4 °F 85% 29.50 in 10.0 mi East 3.5 mph - N/A   Overcast
12:36 AM 3.2 °F -4.2 °F 1.4 °F 92% 29.51 in 10.0 mi East 3.5 mph - N/A   Overcast
12:56 AM 3.2 °F -6.2 °F 1.4 °F 92% 29.51 in 10.0 mi East 4.6 mph - N/A   Overcast
1:16 AM 3.2 °F -6.2 °F 1.4 °F 92% 29.52 in 10.0 mi East 4.6 mph - N/A   Overcast
1:36 AM 3.2 °F -4.2 °F 1.4 °F 92% 29.52 in 10.0 mi ENE 3.5 mph - N/A   Overcast
1:56 AM 3.2 °F - 1.4 °F 92% 29.53 in 10.0 mi Calm Calm - N/A   Overcast
2:16 AM 3.2 °F - 1.4 °F 92% 29.53 in 10.0 mi Calm Calm - N/A   Overcast
2:56 AM 3.2 °F - 1.4 °F 92% 29.54 in 10.0 mi Calm Calm - N/A   Overcast
3:36 AM 3.2 °F - 1.4 °F 92% 29.55 in 10.0 mi Calm Calm - N/A   Overcast
3:56 AM 3.2 °F - 1.4 °F 92% 29.56 in 10.0 mi Calm Calm - N/A   Overcast
4:16 AM 3.2 °F - 1.4 °F 92% 29.57 in 10.0 mi Calm Calm - N/A   Overcast
4:36 AM 3.2 °F - -0.4 °F 85% 29.58 in 10.0 mi Calm Calm - N/A   Overcast
4:56 AM 1.4 °F - -2.2 °F 85% 29.58 in 10.0 mi Calm Calm - N/A   Overcast
5:16 AM 1.4 °F - -0.4 °F 92% 29.59 in 10.0 mi Calm Calm - N/A   Overcast
5:36 AM 1.4 °F - -0.4 °F 92% 29.60 in 10.0 mi Calm Calm - N/A   Overcast
5:56 AM 1.4 °F - -2.2 °F 85% 29.61 in 10.0 mi Calm Calm - N/A   Overcast
6:16 AM -0.4 °F - -5.8 °F 78% 29.62 in 10.0 mi Calm Calm - N/A   Overcast
6:36 AM -0.4 °F - -0.4 °F 100% 29.63 in 10.0 mi Calm Calm - N/A   Overcast
6:56 AM -0.4 °F - -4.0 °F 85% 29.63 in 10.0 mi Calm Calm - N/A   Overcast
7:16 AM -2.2 °F - -5.8 °F 85% 29.64 in 10.0 mi Calm Calm - N/A   Scattered Clouds
7:36 AM -2.2 °F - -7.6 °F 78% 29.65 in 10.0 mi Calm Calm - N/A   Clear
7:56 AM -2.2 °F - -5.8 °F 85% 29.66 in 10.0 mi Calm Calm - N/A   Partly Cloudy
8:16 AM -5.8 °F - -11.2 °F 77% 29.66 in 10.0 mi Calm Calm - N/A   Mostly Cloudy
8:36 AM -4.0 °F - -7.6 °F 85% 29.67 in 10.0 mi Calm Calm - N/A   Overcast
8:56 AM -4.0 °F -12.4 °F -9.4 °F 78% 29.68 in 10.0 mi ENE 3.5 mph - N/A   Mostly Cloudy
9:16 AM -5.8 °F - -9.4 °F 84% 29.70 in 8.0 mi Calm Calm - N/A   Clear
9:36 AM -5.8 °F - -9.4 °F 84% 29.70 in 10.0 mi Calm Calm - N/A   Clear
9:56 AM -5.8 °F - -11.2 °F 77% 29.71 in 10.0 mi Calm Calm - N/A   Clear
10:16 AM -7.6 °F - -13.0 °F 77% 29.72 in 10.0 mi Calm Calm - N/A   Clear
10:36 AM -7.6 °F -16.5 °F -13.0 °F 77% 29.73 in 10.0 mi East 3.5 mph - N/A   Clear
10:56 AM -7.6 °F - -11.2 °F 84% 29.74 in 10.0 mi Calm Calm - N/A   Clear
11:16 AM -7.6 °F -16.5 °F -14.8 °F 71% 29.74 in 10.0 mi ENE 3.5 mph - N/A   Clear
11:36 AM -5.8 °F -16.7 °F -5.8 °F 100% 29.74 in 10.0 mi East 4.6 mph - N/A   Clear
11:56 AM -5.8 °F - -9.4 °F 84% 29.75 in 10.0 mi Calm Calm - N/A   Clear
12:16 PM -5.8 °F -14.5 °F -9.4 °F 84% 29.76 in 10.0 mi ENE 3.5 mph - N/A   Clear
12:36 PM -4.0 °F -12.4 °F -7.6 °F 85% 29.76 in 10.0 mi ENE 3.5 mph - N/A   Clear
12:56 PM -5.8 °F - -7.6 °F 92% 29.78 in 10.0 mi Calm Calm - N/A   Clear
1:16 PM -4.0 °F - -9.4 °F 78% 29.78 in 10.0 mi Calm Calm - N/A   Clear
1:36 PM -2.2 °F - -2.2 °F 100% 29.78 in 10.0 mi Calm Calm - N/A   Clear
1:56 PM -2.2 °F -10.4 °F -5.8 °F 85% 29.78 in 10.0 mi East 3.5 mph - N/A   Clear
2:16 PM -4.0 °F -14.6 °F -5.8 °F 92% 29.79 in 10.0 mi East 4.6 mph - N/A   Clear
2:36 PM -2.2 °F -10.4 °F -2.2 °F 100% 29.80 in 10.0 mi ENE 3.5 mph - N/A   Clear
2:56 PM -4.0 °F - -11.2 °F 71% 29.80 in 10.0 mi Calm Calm - N/A   Clear
3:16 PM -4.0 °F - -7.6 °F 85% 29.80 in 10.0 mi Calm Calm - N/A   Clear
3:36 PM -5.8 °F - -13.0 °F 71% 29.81 in 10.0 mi Calm Calm - N/A   Clear
3:56 PM -5.8 °F - -5.8 °F 100% 29.81 in 10.0 mi Calm Calm - N/A   Clear
4:16 PM -5.8 °F - -16.6 °F 60% 29.82 in 10.0 mi Calm Calm - N/A   Clear
4:36 PM -7.6 °F - -7.6 °F 100% 29.83 in 10.0 mi Calm Calm - N/A   Clear
4:56 PM -9.4 °F - -16.6 °F 71% 29.84 in 10.0 mi Calm Calm - N/A   Clear
5:16 PM -9.4 °F - -13.0 °F 84% 29.84 in 6.0 mi Calm Calm - N/A   Clear
5:36 PM -9.4 °F - -14.8 °F 77% 29.84 in 10.0 mi Calm Calm - N/A   Clear
5:56 PM -9.4 °F - -16.6 °F 71% 29.85 in 10.0 mi Calm Calm - N/A   Clear
6:16 PM -11.2 °F -20.6 °F -14.8 °F 84% 29.85 in 10.0 mi ENE 3.5 mph - N/A   Clear
6:36 PM -11.2 °F - -16.6 °F 77% 29.86 in 10.0 mi Calm Calm - N/A   Clear
6:56 PM -11.2 °F - -16.6 °F 77% 29.86 in 10.0 mi Calm Calm - N/A   Clear
7:16 PM -13.0 °F - -18.4 °F 77% 29.86 in 10.0 mi Calm Calm - N/A   Clear
7:36 PM -14.8 °F - -14.8 °F 100% 29.87 in 10.0 mi Calm Calm - N/A   Clear
7:56 PM -14.8 °F - -20.2 °F 77% 29.87 in 10.0 mi Calm Calm - N/A   Clear
8:16 PM -14.8 °F - -16.6 °F 92% 29.87 in 10.0 mi Calm Calm - N/A   Clear
8:36 PM -16.6 °F - -20.2 °F 84% 29.88 in 10.0 mi Calm Calm - N/A   Clear
8:56 PM -14.8 °F -24.8 °F -18.4 °F 84% 29.88 in 10.0 mi East 3.5 mph - N/A   Clear
9:16 PM -14.8 °F - -16.6 °F 92% 29.89 in 10.0 mi Calm Calm - N/A   Clear
9:36 PM -14.8 °F - -18.4 °F 84% 29.89 in 10.0 mi Calm Calm - N/A   Clear
9:56 PM -11.2 °F -20.6 °F -13.0 °F 92% 29.89 in 10.0 mi West 3.5 mph - N/A   Clear
10:16 PM -9.4 °F - -14.8 °F 77% 29.90 in 10.0 mi Calm Calm - N/A   Clear
10:36 PM -11.2 °F -20.6 °F -18.4 °F 70% 29.90 in 10.0 mi ENE 3.5 mph - N/A   Clear
10:56 PM -11.2 °F - -13.0 °F 92% 29.91 in 10.0 mi Calm Calm - N/A   Clear
11:16 PM -7.6 °F - -7.6 °F 100% 29.91 in 10.0 mi Calm Calm - N/A   Clear
11:36 PM -11.2 °F - -23.8 °F 54% 29.92 in 10.0 mi Calm Calm - N/A   Clear
11:56 PM -13.0 °F - -16.6 °F 84% 29.92 in 10.0 mi Calm Calm - N/A   Clear